TimeEDT,TemperatureF,Dew PointF,Humidity,Sea Level PressureIn,VisibilityMPH,Wind Direction,Wind SpeedMPH,Gust SpeedMPH,PrecipitationIn,Events,Conditions,WindDirDegrees,DateUTC
12:04 AM,75.2,66.2,73,30.21,10.0,East,9.2,-,N/A,,Mostly Cloudy,80,2013-08-25 04:04:00
12:51 AM,75.0,68.0,79,30.20,10.0,East,8.1,-,N/A,,Overcast,90,2013-08-25 04:51:00
12:59 AM,75.2,68.0,78,30.22,10.0,East,5.8,-,N/A,,Overcast,100,2013-08-25 04:59:00
1:51 AM,75.0,66.9,76,30.20,10.0,East,6.9,-,N/A,,Scattered Clouds,90,2013-08-25 05:51:00
2:51 AM,73.9,66.9,79,30.21,9.0,East,8.1,-,N/A,,Scattered Clouds,90,2013-08-25 06:51:00
3:51 AM,73.9,66.0,76,30.21,10.0,East,9.2,-,N/A,,Overcast,80,2013-08-25 07:51:00
4:51 AM,73.0,66.0,79,30.21,10.0,East,8.1,-,N/A,,Overcast,90,2013-08-25 08:51:00
5:51 AM,73.0,66.0,79,30.22,10.0,East,8.1,-,N/A,,Clear,90,2013-08-25 09:51:00
6:51 AM,71.1,66.0,84,30.23,9.0,ESE,6.9,-,N/A,,Clear,110,2013-08-25 10:51:00
7:51 AM,71.1,66.0,84,30.25,7.0,East,9.2,-,N/A,,Clear,100,2013-08-25 11:51:00
8:51 AM,73.9,64.9,73,30.27,9.0,East,13.8,-,N/A,,Clear,90,2013-08-25 12:51:00
9:51 AM,75.9,64.9,69,30.28,10.0,East,11.5,-,N/A,,Clear,100,2013-08-25 13:51:00
10:51 AM,79.0,64.0,60,30.30,10.0,East,12.7,-,N/A,,Clear,100,2013-08-25 14:51:00
11:51 AM,82.0,64.0,54,30.29,10.0,East,17.3,-,N/A,,Partly Cloudy,90,2013-08-25 15:51:00
12:51 PM,82.9,63.0,51,30.27,10.0,East,11.5,-,N/A,,Clear,80,2013-08-25 16:51:00
1:51 PM,84.0,62.1,47,30.25,10.0,East,15.0,18.4,N/A,,Scattered Clouds,90,2013-08-25 17:51:00
2:51 PM,84.9,62.1,46,30.22,10.0,East,10.4,21.9,N/A,,Partly Cloudy,80,2013-08-25 18:51:00
3:51 PM,84.9,61.0,44,30.20,10.0,SE,11.5,17.3,N/A,,Clear,130,2013-08-25 19:51:00
4:51 PM,84.9,61.0,44,30.20,10.0,East,10.4,18.4,N/A,,Partly Cloudy,100,2013-08-25 20:51:00
5:51 PM,84.9,62.1,46,30.21,10.0,ENE,9.2,-,N/A,,Scattered Clouds,60,2013-08-25 21:51:00
6:51 PM,82.9,61.0,47,30.21,10.0,East,8.1,-,N/A,,Partly Cloudy,80,2013-08-25 22:51:00
7:51 PM,81.0,63.0,54,30.22,10.0,East,8.1,-,N/A,,Partly Cloudy,80,2013-08-25 23:51:00
8:51 PM,78.1,64.0,62,30.23,10.0,East,3.5,-,N/A,,Clear,80,2013-08-26 00:51:00
9:51 PM,75.9,63.0,64,30.25,10.0,ENE,4.6,-,N/A,,Clear,70,2013-08-26 01:51:00
10:51 PM,73.9,62.1,66,30.26,10.0,East,5.8,-,N/A,,Clear,90,2013-08-26 02:51:00
11:51 PM,73.0,61.0,66,30.26,10.0,East,5.8,-,N/A,,Clear,80,2013-08-26 03:51:00